Preview of NWS' New Version of Forecast
This preview is not operational and should not be used for support decisions.

Regional Weather Roundup (RWR)

Issued by National Weather Service (NWS)

                            
000
ASUS45 KBOI 221110
RWRID 

IDAHO REGIONAL WEATHER ROUNDUP
NATIONAL WEATHER SERVICE BOISE ID
500 AM MDT MON APR 22 2019

NOTE: "FAIR" INDICATES FEW OR NO CLOUDS BELOW 12000 FEET
WITH NO SIGNIFICANT WEATHER AND/OR OBSTRUCTIONS TO VISIBILITY

IDZ012-014-221200-
SOUTHWEST IDAHO

  
CITY           SKY/WX    TMP DP  RH WIND       PRES   REMARKS
BOISE          CLEAR     43  35  73 SW3       30.16R                  
CALDWELL       CLEAR     46  35  65 W10       30.18R                  
MOUNTAIN HOME  CLEAR     38  35  88 NW7       30.15R WCI  33          
$$

IDZ016-017-221200-
SOUTHCENTRAL IDAHO

  
CITY           SKY/WX    TMP DP  RH WIND       PRES   REMARKS
BURLEY         MOCLDY    42  40  92 CALM      30.15R                  
JEROME         CLOUDY    44  38  79 S6        30.16R                  
TWIN FALLS     MOCLDY    43  36  76 SW10      30.16R                  
$$

IDZ019>023-221200-
SOUTHEAST IDAHO

  
CITY           SKY/WX    TMP DP  RH WIND       PRES   REMARKS
IDAHO FALLS    CLOUDY    42  37  82 N3        30.17R                  
POCATELLO      CLOUDY    42  37  82 NE6       30.16R                  
REXBURG        CLOUDY    44  33  65 NE3       30.16R                  
$$

IDZ006-010-011-018-031-032-221200-
CENTRAL IDAHO MOUNTAINS

  
CITY           SKY/WX    TMP DP  RH WIND       PRES   REMARKS
MCCALL         CLEAR     31  27  85 CALM      30.20R                  
HAILEY         PTCLDY    37  34  87 NW9       30.18R WCI  31          
STANLEY          N/A     30  26  85 CALM      30.23R                  
SALMON         CLEAR     37  34  89 S5        30.24R WCI  33          
CHALLIS        PTCLDY    44  30  57 NW6       30.21R                  
$$

IDZ002-004-006-007-026-221200-
NORTHERN IDAHO

  
CITY           SKY/WX    TMP DP  RH WIND       PRES   REMARKS
LEWISTON       CLEAR     46  34  62 CALM      30.24R                  
LOWELL           N/A     47  46  97 CALM      30.28F                  
COEUR D'ALENE  CLEAR     40  36  86 CALM      30.23R                  
MULLAN PASS    CLEAR     36  24  62 NW5       30.22F WCI  32          
$$